Regional Weather Roundup
Issued by NWS

Home | Current Version | Previous Version | Graphics & Text | Print | Product List | Glossary On
Versions: 1 2 3 4 5 6 7 8 9 10 11 12 13 14 15 16 17 18 19 20 21 22 23 24 25 26 27 28 29 30 31 32 33 34 35 36 37 38 39 40 41 42 43 44 45 46 47 48 49 50
000
ASUS44 KMEG 200500
RWRTN
TENNESSEE HOURLY STATE WEATHER ROUNDUP
NATIONAL WEATHER SERVICE MEMPHIS TN
1100 PM CST FRI DEC 19 2014

TNZ002-004-019-021-049-052-054-088>092-200600-
WEST TENNESSEE

CITY           SKY/WX    TMP DP  RH WIND       PRES   REMARKS
MEMPHIS INTL   PTCLDY    40  32  73 NE6       30.23F
NWS MEMPHIS      N/A     39 N/A N/A MISG        N/A
JACKSON        MOCLDY    38  32  79 N6        30.24S WCI  33
DYERSBURG      CLOUDY    39  23  52 E3        30.26F
UNION CITY     MOCLDY    36  28  75 CALM      30.25S
PARIS          PTCLDY    34  27  75 CALM      30.25R
LEXINGTON      CLEAR     37  28  70 NE5       30.21F WCI  34
SAVANNAH       CLOUDY    37  30  75 CALM      30.22F
$$

TNZ008-025-027-028-033-062-065-066-200600-
NORTH MIDDLE TENNESSEE

CITY           SKY/WX    TMP DP  RH WIND       PRES   REMARKS
NASHVILLE      CLOUDY    37  27  67 E7        30.24S WCI  32
CLARKSVILLE    CLOUDY    35  28  75 NE3       30.24F
COOKEVILLE     CLEAR     34  28  80 N3        30.17F
CROSSVILLE     CLOUDY    35  26  69 NE5       30.16F WCI  31
$$

TNZ061-075-076-078-094-096-097-200600-
SOUTH MIDDLE TENNESSEE

CITY           SKY/WX    TMP DP  RH WIND       PRES   REMARKS
FAYETTEVILLE   CLOUDY    36  28  75 MISG      30.19F
TULLAHOMA      CLOUDY    36  28  75 N3        30.20R
WINCHESTER     CLOUDY    36  30  80 NW7       30.20R WCI  30
SHELBYVILLE    CLOUDY    37  30  75 NW7       30.24R WCI  32
$$

TNZ017-018-042-046-047-200600-
NORTHEAST TENNESSEE

CITY           SKY/WX    TMP DP  RH WIND       PRES   REMARKS
TRI CITIES     MOCLDY    31  27  85 CALM      30.17S
ELIZABETHTON   CLEAR     30  27  86 CALM      30.16F
$$

TNZ012-013-036-069-073-074-200600-
CENTRAL EAST TENNESSEE

CITY           SKY/WX    TMP DP  RH WIND       PRES   REMARKS
KNOXVILLE      CLOUDY    38  28  67 NW5       30.19S WCI  34
OAK RIDGE      CLOUDY    39  27  62 CALM      30.20R
GATLINBURG     MOCLDY    34  30  86 CALM      30.18R
$$

TNZ083-085-099-200600-
SOUTHEAST TENNESSEE

CITY           SKY/WX    TMP DP  RH WIND       PRES   REMARKS
CHATTANOOGA    CLOUDY    43  29  57 NE6       30.18F
$$

SKY/WX REPORTED AS FAIR MEANS FEW OR NO CLOUDS BELOW
12 THOUSAND FEET.



USA.gov is the U.S. government's official web portal to all federal, state and local government web resources and services.